• In Belarus
  • List of Countries
  • For 7 days
  • Water Temperature
  • Satellite Maps
  • Weather Map
  • Weather Widgets
  • user-avatar
    Login

    Hourly Weather Arbon

    Today, 20 October, Friday

    Time Temperature Precipitation Wind Pressure Humidity
    00:00 +13°C° 0 mm 2 mps 725 mmHg 71%
    01:00 +13°C° 0 mm 2 mps 725 mmHg 71%
    02:00 +13°C° 0 mm 2 mps 725 mmHg 73%
    03:00 +13°C° 0 mm 2 mps 726 mmHg 74%
    04:00 +12°C° 0 mm 2 mps 726 mmHg 76%
    05:00 +12°C° 0 mm 2 mps 726 mmHg 75%
    06:00 +12°C° 0 mm 2 mps 726 mmHg 75%
    07:00 +12°C° 0 mm 2 mps 726 mmHg 74%
    08:00 +14°C° 0 mm 2 mps 726 mmHg 68%
    09:00 +16°C° 0 mm 1 mps 726 mmHg 62%
    10:00 +20°C° 0 mm 1 mps 727 mmHg 56%
    11:00 +20°C° 0 mm 1 mps 727 mmHg 55%
    12:00 +20°C° 0 mm 2 mps 727 mmHg 53%
    13:00 +21°C° 0 mm 2 mps 727 mmHg 51%
    14:00 +20°C° 0 mm 2 mps 727 mmHg 56%
    15:00 +19°C° 0 mm 2 mps 727 mmHg 62%
    16:00 +18°C° 0 mm 2 mps 727 mmHg 67%
    17:00 +17°C° 0 mm 2 mps 727 mmHg 73%
    18:00 +15°C° 0 mm 1 mps 727 mmHg 80%
    19:00 +14°C° 0 mm 1 mps 728 mmHg 86%
    20:00 +13°C° 0 mm 1 mps 728 mmHg 85%
    21:00 +13°C° 0 mm 1 mps 728 mmHg 84%
    22:00 +13°C° 0 mm 1 mps 728 mmHg 83%
    23:00 +13°C° 0 mm 1 mps 728 mmHg 81%

    Tomorrow, 21 October, Saturday

    Time Temperature Precipitation Wind Pressure Humidity
    00:00 +13°C° 0 mm 1 mps 728 mmHg 79%
    01:00 +13°C° 0 mm 1 mps 728 mmHg 77%
    02:00 +13°C° 0 mm 2 mps 728 mmHg 76%
    03:00 +13°C° 0 mm 2 mps 728 mmHg 74%
    04:00 +13°C° 0 mm 2 mps 727 mmHg 72%
    05:00 +13°C° 0 mm 2 mps 727 mmHg 70%
    06:00 +13°C° 0 mm 2 mps 728 mmHg 67%
    07:00 +13°C° 0 mm 2 mps 728 mmHg 65%
    08:00 +15°C° 0 mm 2 mps 728 mmHg 62%
    09:00 +18°C° 0 mm 1 mps 728 mmHg 58%
    10:00 +20°C° 0 mm 1 mps 728 mmHg 55%
    11:00 +20°C° 0 mm 2 mps 727 mmHg 53%
    12:00 +21°C° 0 mm 2 mps 727 mmHg 51%
    13:00 +22°C° 0 mm 3 mps 727 mmHg 50%
    14:00 +21°C° 0 mm 2 mps 727 mmHg 55%
    15:00 +20°C° 0 mm 2 mps 726 mmHg 61%
    16:00 +21°C° 0 mm 1 mps 726 mmHg 67%
    17:00 +18°C° 0.1 mm 2 mps 727 mmHg 73%
    18:00 +16°C° 0.1 mm 2 mps 727 mmHg 79%
    19:00 +15°C° 0.1 mm 2 mps 727 mmHg 85%
    20:00 +14°C° 0.7 mm 2 mps 727 mmHg 88%
    21:00 +12°C° 0.7 mm 3 mps 728 mmHg 90%
    22:00 +12°C° 0.7 mm 3 mps 728 mmHg 93%
    23:00 +11°C° 1.2 mm 3 mps 728 mmHg 94%

    Day after tomorrow, 22 October, Sunday

    Time Temperature Precipitation Wind Pressure Humidity
    00:00 +11°C° 1.2 mm 3 mps 728 mmHg 95%
    01:00 +10°C° 1.2 mm 3 mps 728 mmHg 95%
    02:00 +10°C° 0.6 mm 3 mps 728 mmHg 95%
    03:00 +10°C° 0.6 mm 3 mps 728 mmHg 95%
    04:00 +10°C° 0.6 mm 2 mps 727 mmHg 94%
    05:00 +9°C° 0.7 mm 2 mps 727 mmHg 94%
    06:00 +9°C° 0.7 mm 2 mps 727 mmHg 94%
    07:00 +9°C° 0.7 mm 2 mps 727 mmHg 95%
    08:00 +9°C° 0.8 mm 2 mps 727 mmHg 93%
    09:00 +9°C° 0.8 mm 3 mps 727 mmHg 91%
    10:00 +9°C° 0.8 mm 3 mps 727 mmHg 89%
    11:00 +10°C° 0.6 mm 3 mps 727 mmHg 87%
    12:00 +10°C° 0.6 mm 3 mps 727 mmHg 85%
    13:00 +10°C° 0.6 mm 3 mps 727 mmHg 83%
    14:00 +10°C° 0.6 mm 3 mps 727 mmHg 84%
    15:00 +10°C° 0.6 mm 3 mps 727 mmHg 84%
    16:00 +9°C° 0.6 mm 3 mps 727 mmHg 85%
    17:00 +9°C° 0.4 mm 3 mps 727 mmHg 87%
    18:00 +8°C° 0.4 mm 3 mps 727 mmHg 90%
    19:00 +7°C° 0.4 mm 3 mps 728 mmHg 92%
    20:00 +7°C° 0.3 mm 3 mps 728 mmHg 93%
    21:00 +7°C° 0.3 mm 3 mps 728 mmHg 93%
    22:00 +7°C° 0.3 mm 3 mps 729 mmHg 94%
    23:00 +7°C° 0.4 mm 3 mps 729 mmHg 94%

    23 October, Monday

    Time Temperature Precipitation Wind Pressure Humidity
    00:00 +7°C° 0.4 mm 3 mps 728 mmHg 94%
    01:00 +7°C° 0.4 mm 3 mps 728 mmHg 94%
    02:00 +5°C° 0.5 mm 3 mps 728 mmHg 94%
    03:00 +5°C° 0.5 mm 3 mps 728 mmHg 94%
    04:00 +5°C° 0.5 mm 3 mps 728 mmHg 94%
    05:00 +5°C° 0.7 mm 3 mps 728 mmHg 94%
    06:00 +5°C° 0.7 mm 3 mps 728 mmHg 95%
    07:00 +5°C° 0.7 mm 3 mps 728 mmHg 95%
    08:00 +7°C° 0.8 mm 3 mps 728 mmHg 95%
    09:00 +7°C° 0.8 mm 3 mps 728 mmHg 94%
    10:00 +8°C° 0.8 mm 3 mps 729 mmHg 94%
    11:00 +8°C° 0.6 mm 3 mps 729 mmHg 93%
    12:00 +9°C° 0.6 mm 3 mps 729 mmHg 92%
    13:00 +8°C° 0.6 mm 4 mps 729 mmHg 91%
    14:00 +9°C° 0.6 mm 3 mps 729 mmHg 91%
    15:00 +9°C° 0.6 mm 3 mps 729 mmHg 92%
    16:00 +9°C° 0.6 mm 3 mps 729 mmHg 92%
    17:00 +9°C° 0.4 mm 3 mps 729 mmHg 93%
    18:00 +9°C° 0.4 mm 3 mps 730 mmHg 95%
    19:00 +8°C° 0.4 mm 3 mps 730 mmHg 96%
    20:00 +8°C° 0.3 mm 3 mps 730 mmHg 96%
    21:00 +8°C° 0.3 mm 3 mps 730 mmHg 96%
    22:00 +8°C° 0.3 mm 3 mps 730 mmHg 96%
    23:00 +8°C° 0.4 mm 3 mps 730 mmHg 96%

    24 October, Tuesday

    Time Temperature Precipitation Wind Pressure Humidity
    00:00 +8°C° 0.4 mm 2 mps 730 mmHg 96%
    01:00 +8°C° 0.4 mm 2 mps 730 mmHg 96%
    02:00 +8°C° 0.7 mm 2 mps 730 mmHg 96%
    03:00 +8°C° 0.7 mm 3 mps 730 mmHg 95%
    04:00 +8°C° 0.7 mm 3 mps 729 mmHg 95%
    05:00 +8°C° 0.6 mm 3 mps 730 mmHg 95%
    06:00 +8°C° 0.6 mm 3 mps 730 mmHg 95%
    07:00 +8°C° 0.6 mm 3 mps 730 mmHg 96%
    08:00 +9°C° 0.3 mm 2 mps 730 mmHg 95%
    09:00 +10°C° 0.3 mm 2 mps 730 mmHg 94%
    10:00 +12°C° 0.3 mm 2 mps 730 mmHg 93%
    11:00 +12°C° 0.8 mm 2 mps 730 mmHg 94%
    12:00 +12°C° 0.8 mm 2 mps 730 mmHg 95%
    13:00 +12°C° 0.8 mm 2 mps 730 mmHg 96%
    14:00 +13°C° 0.4 mm 2 mps 730 mmHg 96%
    15:00 +13°C° 0.4 mm 2 mps 731 mmHg 96%
    16:00 +13°C° 0.4 mm 2 mps 731 mmHg 96%
    17:00 +13°C° 0 mm 2 mps 731 mmHg 96%
    18:00 +12°C° 0 mm 2 mps 731 mmHg 96%
    19:00 +12°C° 0 mm 1 mps 732 mmHg 97%
    20:00 +12°C° 0 mm 1 mps 732 mmHg 97%
    21:00 +12°C° 0 mm 1 mps 732 mmHg 97%
    22:00 +12°C° 0 mm 1 mps 732 mmHg 97%
    23:00 +11°C° 0 mm 1 mps 732 mmHg 97%

    25 October, Wednesday

    Time Temperature Precipitation Wind Pressure Humidity
    00:00 +11°C° 0 mm 1 mps 732 mmHg 97%
    01:00 +11°C° 0 mm 1 mps 732 mmHg 97%
    02:00 +10°C° 0 mm 1 mps 732 mmHg 96%
    03:00 +10°C° 0 mm 1 mps 732 mmHg 96%
    04:00 +10°C° 0 mm 1 mps 732 mmHg 96%
    05:00 +10°C° 0 mm 1 mps 732 mmHg 95%
    06:00 +10°C° 0 mm 1 mps 732 mmHg 95%
    07:00 +9°C° 0 mm 1 mps 732 mmHg 94%
    08:00 +11°C° 0 mm 1 mps 733 mmHg 92%
    09:00 +13°C° 0 mm 1 mps 733 mmHg 90%
    10:00 +15°C° 0 mm 1 mps 733 mmHg 88%
    11:00 +16°C° 0 mm 1 mps 733 mmHg 84%
    12:00 +18°C° 0 mm 1 mps 733 mmHg 81%
    13:00 +19°C° 0 mm 1 mps 732 mmHg 77%
    14:00 +19°C° 0 mm 1 mps 732 mmHg 80%
    15:00 +18°C° 0 mm 1 mps 732 mmHg 82%
    16:00 +18°C° 0 mm 1 mps 732 mmHg 85%
    17:00 +15°C° 0 mm 1 mps 732 mmHg 86%
    18:00 +14°C° 0 mm 1 mps 733 mmHg 87%
    19:00 +12°C° 0 mm 1 mps 733 mmHg 88%
    20:00 +12°C° 0 mm 1 mps 733 mmHg 87%
    21:00 +12°C° 0 mm 1 mps 733 mmHg 86%
    22:00 +11°C° 0 mm 1 mps 733 mmHg 85%
    23:00 +11°C° 0 mm 1 mps 733 mmHg 84%
    Show more